Regional Weather Roundup
Issued by NWS

Home | Current Version | Previous Version | Graphics & Text | Print | Product List | Glossary On
Versions: 1 2 3 4 5 6 7 8 9 10 11 12 13 14 15 16 17 18 19 20 21 22 23 24 25 26 27 28 29 30 31 32 33 34 35 36 37 38 39 40 41 42 43 44 45 46 47 48 49 50
591
ASUS45 KCYS 221710
RWRWY

WYOMING REGIONAL WEATHER ROUNDUP
NATIONAL WEATHER SERVICE CHEYENNE WY
1000 AM MST THU FEB 22 2018

NOTE:  "FAIR" INDICATES FEW OR NO CLOUDS BELOW 12,000 FEET
WITH NO SIGNIFICANT WEATHER AND/OR OBSTRUCTIONS TO VISIBILITY.

WYZ001-221800-
YELLOWSTONE NATIONAL PARK

CITY           SKY/WX    TMP DP  RH WIND       PRES   REMARKS
LK YELLOWSTONE   N/A     -2  -7  79 CALM      29.90S
W YELLOWSTONE  NOT AVBL

$$
WYZ002>013-054>058-071-098>099-221800-
NORTHERN WYOMING

CITY           SKY/WX    TMP DP  RH WIND       PRES   REMARKS
JACKSON        PTSUNNY    5  -4  66 N3        29.97F
CODY           FAIR      18   2  49 SW9       29.99S WCI   7
GREYBULL       FAIR      -9 -14  78 NW6       30.11S WCI -22
WORLAND        FAIR      -1  -4  87 SW5       30.07S WCI -11
SHERIDAN       FAIR       0  -5  79 CALM      30.06S
BUFFALO        FAIR      20   1  43 SW3       30.01S
GILLETTE       FAIR       6  -4  63 CALM      30.04S
HULETT         CLOUDY    16   5  62 MISG      30.06S
NEWCASTLE      FAIR      12   5  73 NW6       30.06S WCI   3

$$
WYZ014>020-022>026-101>103-221800-
CENTRAL WYOMING

CITY           SKY/WX    TMP DP  RH WIND       PRES   REMARKS
BIG PINEY      PTSUNNY    4  -2  76 SE5       29.95F WCI  -5
PINEDALE       FAIR       9   1  72 NW5       29.95S WCI   0
DUBOIS           N/A    N/A N/A N/A MISG        N/A
LANDER         FAIR       0  -4  83 SE6       29.99F WCI -12
RIVERTON       PTSUNNY   -1  -7  75 CALM      30.01F
CASPER         CLOUDY     4  -4  69 CALM      30.02R
DOUGLAS        CLOUDY    12   4  70 NW3       30.03F

$$
WYZ021-027>030-104>119-221800-
SOUTHERN WYOMING

CITY           SKY/WX    TMP DP  RH WIND       PRES   REMARKS
EVANSTON       FAIR       6  -1  73 E15       29.88F WCI -12
ROCK SPRINGS   PTSUNNY    6   0  76 S3        29.95F
DIXON          LGT SNOW  15   8  75 CALM      29.99S
RAWLINS        CLOUDY     8   4  83 CALM      29.95F FOG
SARATOGA       CLOUDY    10   3  72 CALM      29.94F HAZE
LARAMIE        FAIR       9   5  84 CALM      29.89F
CHEYENNE       PTSUNNY   17  10  74 CALM      29.93F
TORRINGTON     FAIR      17  12  80 S6        30.05F WCI   9
PINE BLUFFS    CLOUDY    12  10  92 MISG      30.01F VSB 1/2

$$




USA.gov is the U.S. government's official web portal to all federal, state and local government web resources and services.